Table Rock Lake Weather Center

Moon Phase Calendar



Table Rock Lake Water Level
Online Cameras

 


      

Current Conditions in Kimberling City
5/19/2022 8:23:11 PM

79°F
Feels Like 79
Clear
Humidity
71%
Pressure
29.53"
Wind
6 mph (SW)
Dew Point
69°F
UV Index
0/10 (Low)
Visibility
6 mi

Hourly Forecast

Date & Time Thu, May 19
8:00 PM
Thu, May 19
9:00 PM
Thu, May 19
10:00 PM
Thu, May 19
11:00 PM
Fri, May 20
12:00 AM
Fri, May 20
1:00 AM
Fri, May 20
2:00 AM
Fri, May 20
3:00 AM
Fri, May 20
4:00 AM
Fri, May 20
5:00 AM
Fri, May 20
6:00 AM
Fri, May 20
7:00 AM
Fri, May 20
8:00 AM
Fri, May 20
9:00 AM
Fri, May 20
10:00 AM
Fri, May 20
11:00 AM
Fri, May 20
12:00 PM
Fri, May 20
1:00 PM
Fri, May 20
2:00 PM
Fri, May 20
3:00 PM
Fri, May 20
4:00 PM
Fri, May 20
5:00 PM
Fri, May 20
6:00 PM
Fri, May 20
7:00 PM
Fri, May 20
8:00 PM
Fri, May 20
9:00 PM
Fri, May 20
10:00 PM
Fri, May 20
11:00 PM
Sat, May 21
12:00 AM
Sat, May 21
1:00 AM
Sat, May 21
2:00 AM
Sat, May 21
3:00 AM
Sat, May 21
4:00 AM
Sat, May 21
5:00 AM
Sat, May 21
6:00 AM
Sat, May 21
7:00 AM
Sat, May 21
8:00 AM
Sat, May 21
9:00 AM
Sat, May 21
10:00 AM
Sat, May 21
11:00 AM
Sat, May 21
12:00 PM
Sat, May 21
1:00 PM
Sat, May 21
2:00 PM
Sat, May 21
3:00 PM
Sat, May 21
4:00 PM
Sat, May 21
5:00 PM
Sat, May 21
6:00 PM
Sat, May 21
7:00 PM
Condition
Clear

Clouds

Clouds

Clouds

Clouds

Clouds

Clouds

Clouds

Clouds

Clouds

Clouds

Clouds

Clouds

Clouds

Clouds

Clouds

Clouds

Clouds

Clouds

Clouds

Clouds

Clouds

Clouds

Clouds

Clear

Clear

Rain

Rain

Rain

Clouds

Rain

Rain

Clouds

Clouds

Clouds

Clouds

Clouds

Rain

Rain

Rain

Clouds

Clouds

Clouds

Clouds

Clouds

Rain

Rain

Rain
Temperature 79°F79°F79°F79°F79°F79°F79°F79°F78°F77°F76°F75°F75°F77°F80°F83°F86°F88°F90°F91°F90°F89°F87°F83°F77°F75°F73°F68°F67°F66°F65°F64°F63°F62°F61°F62°F63°F65°F67°F70°F74°F79°F82°F84°F83°F78°F71°F64°F
Feels Like 79°F79°F79°F79°F79°F79°F79°F79°F78°F77°F76°F75°F75°F78°F82°F85°F88°F90°F91°F92°F92°F93°F91°F87°F78°F76°F73°F69°F68°F67°F66°F65°F64°F63°F62°F62°F63°F65°F68°F71°F75°F79°F84°F87°F86°F79°F72°F65°F
Cloudiness 0%14%24%33%45%63%100%100%100%100%100%100%38%46%58%68%74%78%100%82%60%46%38%35%8%4%28%46%57%64%100%100%100%100%100%100%98%99%99%99%99%98%98%79%86%89%91%91%
Visibility 6 mi6 mi6 mi6 mi6 mi6 mi6 mi6 mi6 mi6 mi6 mi6 mi6 mi6 mi6 mi6 mi6 mi6 mi6 mi6 mi6 mi6 mi6 mi6 mi6 mi6 mi6 mi6 mi6 mi6 mi6 mi6 mi6 mi6 mi6 mi6 mi3 mi6 mi6 mi6 mi6 mi6 mi6 mi6 mi6 mi6 mi6 mi6 mi
Precipitation 0%0%0%0%0%0%0%0%0%0%0%0%0%0%0%0%0%0%0%0%0%0%3%6%4%22%31%56%75%76%40%48%52%40%36%33%0%36%37%52%66%62%26%38%46%89%98%100%
Humidity 71%70%66%60%55%47%45%46%48%50%52%58%60%57%55%53%49%46%42%41%44%49%55%68%78%78%82%93%97%98%98%99%99%99%99%99%98%96%95%91%80%69%62%57%62%79%93%96%
Dew Point 69°F68°F66°F64°F61°F57°F56°F56°F57°F57°F57°F59°F60°F61°F63°F64°F65°F65°F64°F63°F65°F67°F69°F71°F69°F67°F66°F66°F65°F65°F64°F64°F63°F62°F61°F61°F62°F63°F65°F66°F68°F68°F67°F67°F68°F70°F69°F63°F
Pressure 29.53"29.53"29.53"29.53"29.5"29.47"29.44"29.44"29.44"29.44"29.47"29.47"29.47"29.5"29.5"29.53"29.53"29.56"29.56"29.56"29.56"29.59"29.62"29.62"29.62"29.68"29.71"29.77"29.8"29.77"29.8"29.8"29.83"29.8"29.83"29.85"29.88"29.91"29.91"29.91"29.91"29.88"29.85"29.85"29.85"29.85"29.85"29.94"
Wind Speed 11.4 mph11.2 mph12.3 mph12.2 mph11.7 mph13.7 mph15.2 mph16.3 mph16.9 mph17 mph18 mph18 mph17.9 mph17.2 mph16.7 mph16.2 mph16.8 mph16.6 mph15.4 mph14.8 mph13.6 mph11 mph8.3 mph4.6 mph3.8 mph4 mph1.8 mph2.5 mph5.3 mph2.6 mph2.5 mph4.7 mph5.3 mph4.6 mph5.3 mph3.4 mph3.7 mph3 mph2.8 mph3.6 mph2.8 mph3.8 mph6.5 mph8.9 mph7.6 mph6.9 mph11.3 mph10.6 mph
Wind
Direction
218°
SW
204°
SSW
201°
SSW
204°
SSW
201°
SSW
202°
SSW
200°
SSW
202°
SSW
204°
SSW
204°
SSW
205°
SSW
204°
SSW
206°
SSW
211°
SSW
216°
SW
217°
SW
214°
SW
215°
SW
222°
SW
224°
SW
222°
SW
219°
SW
219°
SW
206°
SSW
183°
S
207°
SSW
229°
SW
283°
WNW
312°
NW
71°
ENE
259°
W
359°
N
351°
N
36°
NE
31°
NNE
38°
NE
22°
NNE
52°
NE
69°
ENE
108°
ESE
113°
ESE
195°
SSW
211°
SSW
219°
SW
231°
SW
245°
WSW
319°
NW
343°
NNW

Daily Forecast

Date High Low Precip. Humidity
Today
May 19

Rain
86 °F
67 °F
65%
50%
Friday
May 20

Rain
91 °F
68 °F
56%
46%
Saturday
May 21

Rain
83 °F
50 °F
100%
69%
Sunday
May 22

Rain
67 °F
46 °F
97%
50%
Monday
May 23

Rain
62 °F
46 °F
75%
78%
Tuesday
May 24

Rain
61 °F
57 °F
100%
99%
Wednesday
May 25

Rain
65 °F
58 °F
100%
90%
Thursday
May 26

Rain
63 °F
56 °F
98%
99%
Friday
May 27

Rain
59 °F
57 °F
85%
97%
Saturday
May 28

Clouds
77 °F
57 °F
0%
60%
Sunday
May 29

Rain
76 °F
60 °F
31%
63%
Monday
May 30

Clouds
89 °F
61 °F
14%
54%
Tuesday
May 31

Clouds
91 °F
69 °F
0%
37%
Wednesday
Jun 1

Rain
88 °F
73 °F
45%
48%
Thursday
Jun 2

Rain
89 °F
68 °F
97%
67%
Friday
Jun 3

Clear
92 °F
71 °F
0%
40%

Temperature 8-14 Day Outlook



Precipitation 8-14 Day Outlook




Quick Links
Table Rock Lake News
Table Rock Lake Photos
Table Rock Lake Videos




About Us
Contact Us
Site Map
Search Site
Advertise With Us
   
TableRock.USLakes.info
THE TABLE ROCK LAKE WEBSITE

Copyright 2022, Lakes Online
Privacy    |    Legal